Home   Weather   Feldbach   Past weeks
Flag for Austria

Past Weather in Feldbach, Styria, Austria — Yesterday and Last 2 Weeks

Now
80 °F

Sunny.


Feels Like: 82 °F
Forecast: 79 / 58 °F
Wind: 2 mph from North

Location: Graz-Thalerhof-Flughafen

Current Time: Jun 27, 2019 at 10:35:01 am

Latest Report: Jun 27, 2019 at 9:00 am


Visibility: 19 mi

Pressure: 30.08 "Hg

Humidity: 68%

Dew Point: 68 °F

Location of FeldbachLocation

Past Weather in Feldbach — Graph

°F

Feldbach Temperature Yesterday

Maximum temperature yesterday: 88 °F (at 5:00 pm)
Minimum temperature yesterday: 65 °F (at 5:00 am)
Average temperature yesterday: 79 °F

High & Low Weather Summary for the Past Weeks

 TemperatureHumidityPressure
High89 °F (Jun 13, 3:00 pm)97% (Jun 13, 4:00 am)30.26 "Hg (Jun 13, 4:00 am)
Low56 °F (Jun 20, 5:00 am)31% (Jun 13, 6:00 pm)29.77 "Hg (Jun 12, 6:00 pm)
Average73 °F69%29.98 "Hg
* Reported Jun 12 9:00 am — Jun 27 9:00 am, Feldbach. Weather by CustomWeather, © 2019

Note: Actual official high and low records may vary slightly from our data, if they occured in-between our weather recording intervals... More about our weather records

Advertising

Feldbach Weather History for the Previous 24 Hours

Scroll right to see more
 ConditionsComfort  
Time TempWeatherWind HumidityBarometerVisibility
9:00 am
Thu, Jun 27
80 °FSunny.2 mph68%30.08 "Hg19 mi
8:00 am75 °FSunny.1 mph80%30.09 "Hg13 mi
7:00 am71 °FSunny.1 mph86%30.11 "Hg11 mi
6:00 am67 °FSunny.1 mph94%30.13 "Hg6 mi
5:00 am67 °FMild.1 mph93%30.13 "Hg4 mi
2:00 am71 °FMild.1 mph87%30.15 "Hg12 mi
1:00 am72 °FMild.No wind86%30.15 "Hg12 mi
12:00 am73 °FPassing clouds.1 mph79%30.16 "Hg17 mi
11:00 pm
Wed, Jun 26
76 °FPassing clouds.1 mph75%30.15 "Hg18 mi
10:00 pm79 °FPassing clouds.1 mph65%30.15 "Hg11 mi
7:00 pm86 °FPassing clouds.5 mph53%30.11 "Hg25 mi
6:00 pm87 °FPassing clouds.5 mph48%30.12 "Hg28 mi
5:00 pm88 °FPassing clouds.3 mph48%30.14 "Hg22 mi
4:00 pm88 °FPassing clouds.3 mph48%30.16 "Hg25 mi
2:00 pm86 °FPassing clouds.3 mph46%30.18 "Hg28 mi
1:00 pm85 °FPassing clouds.3 mph52%30.20 "Hg25 mi
12:00 pm83 °FPassing clouds.3 mph53%30.22 "Hg28 mi
10:00 am80 °FPassing clouds.2 mph66%30.23 "Hg17 mi
Weather by CustomWeather, © 2019

See weather overview